STARLINK-5673, 55462

Orbit data source: Space-Track

STARLINK-5673, 55462 is a payload satellite owned by SpaceX/Seattle (US) in LEO that was launched on Thu, 02 Feb 2023 UTC via an FALCON 9 launch vehicle from the Air Force Eastern Test Range (AFETR). Payload-class satellites include a variety of spacecraft equipped with specific instruments for various scientific and technological missions. These include communications satellites like Starlink; space stations such as the ISS; scientific satellites like the Hubble; Earth observation satellites from companies like Planet Labs, Umbra, and HawkEye 360; GPS; miniature CubeSats for education and research; and military/defense satellites.

Loading next visibility...
Identifier
55462, 2023-015P
Orbit
LEO
Country
Flag of USUS
Related business
Manufacturer
SpaceX/Seattle
Mission
Operational Commercial Communications
Bus & Motor
STARLINK, Unknown motor
Mass
305 kg wet, ~290 kg dry
Launch date (UTC)
2023-02-02 (4 years ago)
Launch vehicle
FALCON 9
Launch site
Air Force Eastern Test Range (AFETR)
Object type
Payload
Rocket body
Debris
Shape & HBR
Box + 1 Pan, 10.1 m
Radar Cross Section
13.562 m², Large (>1 m²)

Expand to show TLE details & history
Last TLE update: 5 hours ago

TLE from 5 hours ago
0 STARLINK-5673
1 55462U 23015P   26258.63152767  .00000012  00000-0  99545-5 0  9993
2 55462  43.0028 335.8207 0001207 280.1199  79.9516 15.27579215199773
Epoch: 2026-09-15T15:09Z
TLE epoch observation values (Epoch: 2026-09-15T15:09:23.990Z)
Latitude
-0.00006°
Longitude
113.87598°
Altitude
482.683 km
Speed
7.626 km/s
True Right ascension
22h 23m 16s
True Declination
0° 00' 00"
Sunlit
Object was in full shadow at epoch
Visualization orbit readout
Latitude
Unknown
Longitude
Unknown
Altitude
Unknown
Speed
Unknown
Apparent Right ascension
Unknown
Apparent Declination
Unknown
Sunlit
N/A
Visualization observer readout
Local Sidereal Time
12:58:20
Azimuth
Unknown
Elevation
Unknown
Doppler factor
Unknown
Orbital elements
Apogee altitude
485.825 km
Perigee altitude
484.168 km
Semi-major axis
6,863.133 km
Eccentricity
0.00012
Inclination
43.0028°
RAAN
335.8207°
Arg. of periapsis
280.1199°
True anomaly
79.96522°
Mean anomaly
79.9516°
Eccentric anomaly
79.95841°
Mean motion
3.81733 °/min
Orbital period
94.31 mins
BSTAR
0.0000099545
Loading maneuver chart data...
Computing Atmospheric mass density...
Loading historical data...
Loading historical data...
Loading historical data...
Loading historical data...
Loading historical data...
Loading historical data...
Loading historical data...

Documentation

Showing up to 5 results
|